Location: Recife
(8.0585°S, 34.8848°W)
Time: 19:00:10
(UTC-03:00)

Hubble Space Telescope - Pass Details

Date: 30 September 2021
Orbit: 535 x 539 km, 28.5° (Epoch: 24 October)

Event Time Altitude Azimuth Distance (km) Brightness Sun altitude
Rises 18:50:25 0° 272° (W) 2,668 5.7 -24.5°
Reaches altitude 10° 18:53:03 10° 256° (WSW) 1,781 4.5 -25.1°
Maximum altitude 18:56:17 22° 204° (SSW) 1,198 2.8 -25.9°
Enters shadow 18:56:54 21° 191° (S) 1,224 2.7 -26.1°
